User: anonymous   Login
Location: Manas
(43.3709°N, 0.3616°E)
Time: 22:03:10
(UTC+00:00)
Language:

Cosmos-2242 - Orbit

View from above orbital plane
View from above orbital plane
View from above satellite
View from above satellite

Ground track
Ground track

The orbit is defined by the following mean orbital elements,

1 22626U          26111.55872505 +.00000000 +00000-0 +11462-3 0 00006
2 22626  82.5201 225.7054 0016944 156.8685 203.3303 14.96728897    01
Epoch (UTC): 21 April 2026 13:24:33
Eccentricity: 0.0016944
inclination: 82.5201°
perigee height: 565 km
apogee height: 589 km
right ascension of ascending node: 225.7054°
argument of perigee: 156.8685°
revolutions per day: 14.96728897
mean anomaly at epoch: 203.3303°

The dashed part of the orbit path shows where the satellite is in the earth's shadow,  

DLR